Regional Weather Roundup
Issued by NWS Goodland, KS

Home | Current Version | Previous Version | Text Only | Print | Product List | Glossary Off
Versions: 1 2 3 4 5 6 7 8 9 10 11 12 13 14 15 16 17 18 19 20 21 22 23 24 25 26 27 28 29 30 31 32 33 34 35 36 37 38 39 40 41 42 43 44 45 46 47 48 49 50

000
ASUS43 KGLD 250059
RWRGLD

GOODLAND FORECAST AREA HOURLY WEATHER ROUNDUP
NATIONAL WEATHER SERVICE GOODLAND KS
700 PM MDT TUE MAY 24 2016

...OFFICIAL OBSERVATIONS...

CITY           SKY/WX    TMP DP  RH WIND       PRES   REMARKS
GOODLAND KS    SUNNY     73  62  68 E16       29.76F
HILL CITY KS   CLOUDY    72  64  76 E16G24    29.75R
IMPERIAL NEB   CLOUDY    71  59  65 E14       29.77F
MCCOOK NEB     PTCLDY    74  60  61 SE14      29.79S
AKRON CO       TSTM      56  49  77 NW20G51   29.79F
BURLINGTON CO  SUNNY     75  59  57 SE17      29.77F
LIMON CO       SUNNY     71  38  29 S15G26    29.82S
$$

...UNOFFICIAL OBSERVATIONS...

CITY           SKY/WX    TMP DP  RH WIND       PRES   REMARKS
COLBY KS       MOCLDY    73  66  78 E18       29.79F
GOVE KS          N/A     71  32  23 MISG        N/A
LENORA KS        N/A     72  32  23 MISG        N/A
NORTON KS      CLEAR     73  59  60 E12G22    29.76F
SHARON SPRINGS   N/A     76  65  70 E13G20      N/A
KIT CARSON CO    N/A     82  46  28 MISG        N/A
YUMA CO          N/A     70  58  66 E12         N/A
$$



USA.gov is the U.S. government's official web portal to all federal, state and local government web resources and services.